OAS9320 SKBO-SKCC

Flight info

Callsign OAS9320
Flight time 0h 41m
Altitude 25000
Route OSUSU4R OSUSU DCT BUV DCT ESNUT ESNUT2A
Aircraft A21N/M-SDE3FGHIRWY/LB1

Departure

Time 2026-04-23 17:53
Airport El Dorado International Airport (SKBO)

Arrival

Time 2026-04-23 18:35
Airport Camilo Daza International Airport (SKCC)
Time Latitude Longitude Altitude Speed Heading
2026-04-23 17:29 4.69818 -74.14584 8371 ft 0 kts 67°
2026-04-23 17:36 4.69814 -74.14593 8373 ft 2 kts 60°
2026-04-23 17:37 4.69804 -74.14603 8371 ft 2 kts 30°
2026-04-23 17:37 4.69789 -74.14609 8371 ft 2 kts
2026-04-23 17:37 4.69761 -74.14600 8371 ft 2 kts 316°
2026-04-23 17:38 4.69756 -74.14595 8371 ft 1 kts 304°
2026-04-23 17:38 4.69754 -74.14592 8371 ft 0 kts 308°
2026-04-23 17:40 4.69757 -74.14595 8371 ft 2 kts 308°
2026-04-23 17:40 4.69773 -74.14616 8371 ft 5 kts 307°
2026-04-23 17:40 4.69794 -74.14644 8372 ft 4 kts 308°
2026-04-23 17:41 4.69817 -74.14672 8372 ft 5 kts 308°
2026-04-23 17:41 4.69864 -74.14738 8371 ft 5 kts 303°
2026-04-23 17:41 4.69888 -74.14772 8372 ft 5 kts 311°
2026-04-23 17:42 4.69959 -74.14758 8372 ft 6 kts 38°
2026-04-23 17:42 4.69993 -74.14731 8372 ft 6 kts 39°
2026-04-23 17:42 4.70027 -74.14701 8372 ft 6 kts 40°
2026-04-23 17:43 4.70064 -74.14670 8372 ft 7 kts 39°
2026-04-23 17:43 4.70106 -74.14641 8372 ft 7 kts 34°
2026-04-23 17:43 4.70151 -74.14610 8372 ft 8 kts 34°
2026-04-23 17:43 4.70198 -74.14576 8372 ft 8 kts 36°
2026-04-23 17:44 4.70247 -74.14539 8372 ft 9 kts 38°
2026-04-23 17:44 4.70301 -74.14497 8372 ft 9 kts 38°
2026-04-23 17:44 4.70356 -74.14455 8372 ft 2 kts 37°
2026-04-23 17:45 4.70380 -74.14437 8372 ft 3 kts 38°
2026-04-23 17:45 4.70442 -74.14381 8372 ft 6 kts 73°
2026-04-23 17:45 4.70426 -74.14333 8372 ft 8 kts 125°
2026-04-23 17:46 4.70355 -74.14237 8372 ft 9 kts 127°
2026-04-23 17:46 4.70315 -74.14184 8372 ft 9 kts 123°
2026-04-23 17:46 4.70262 -74.14114 8372 ft 13 kts 128°
2026-04-23 17:47 4.70203 -74.14037 8372 ft 13 kts 127°
2026-04-23 17:47 4.70146 -74.13960 8372 ft 13 kts 127°
2026-04-23 17:47 4.70029 -74.13804 8371 ft 14 kts 127°
2026-04-23 17:48 4.69970 -74.13726 8370 ft 13 kts 127°
2026-04-23 17:48 4.69912 -74.13650 8370 ft 13 kts 127°
2026-04-23 17:48 4.69853 -74.13573 8370 ft 13 kts 127°
2026-04-23 17:48 4.69794 -74.13495 8370 ft 14 kts 127°
2026-04-23 17:49 4.69734 -74.13413 8370 ft 14 kts 128°
2026-04-23 17:49 4.69672 -74.13333 8370 ft 14 kts 127°
2026-04-23 17:49 4.69607 -74.13247 8370 ft 16 kts 127°
2026-04-23 17:49 4.69538 -74.13156 8371 ft 16 kts 127°
2026-04-23 17:50 4.69471 -74.13066 8372 ft 17 kts 127°
2026-04-23 17:50 4.69332 -74.12881 8373 ft 15 kts 124°
2026-04-23 17:50 4.69268 -74.12794 8374 ft 14 kts 130°
2026-04-23 17:51 4.69205 -74.12721 8374 ft 8 kts 126°
2026-04-23 17:51 4.69191 -74.12663 8374 ft 8 kts 85°
2026-04-23 17:51 4.69229 -74.12537 8374 ft 9 kts 72°
2026-04-23 17:52 4.69259 -74.12490 8374 ft 5 kts 20°
2026-04-23 17:52 4.69303 -74.12517 8374 ft 4 kts 313°
2026-04-23 17:52 4.69427 -74.12680 8373 ft 63 kts 307°
2026-04-23 17:53 4.70480 -74.14078 8372 ft 178 kts 307°
2026-04-23 17:53 4.71261 -74.15107 8865 ft 183 kts 308°
2026-04-23 17:53 4.72019 -74.16091 9589 ft 177 kts 310°
2026-04-23 17:54 4.72787 -74.17024 10166 ft 174 kts 310°
2026-04-23 17:54 4.73632 -74.17918 10475 ft 181 kts 324°
2026-04-23 17:54 4.76162 -74.17712 10929 ft 206 kts 24°
2026-04-23 17:55 4.78964 -74.16457 11455 ft 232 kts 21°
2026-04-23 17:55 4.80500 -74.15801 11719 ft 246 kts 21°
2026-04-23 17:55 4.82137 -74.15107 11949 ft 263 kts 21°
2026-04-23 17:56 4.83888 -74.14364 12202 ft 279 kts 21°
2026-04-23 17:56 4.87435 -74.12678 13323 ft 286 kts 33°
2026-04-23 17:56 4.89007 -74.11441 13768 ft 295 kts 43°
2026-04-23 17:57 4.90516 -74.09967 14032 ft 310 kts 44°
2026-04-23 17:57 4.92087 -74.08380 14291 ft 326 kts 45°
2026-04-23 17:57 4.95423 -74.05027 14784 ft 355 kts 44°
2026-04-23 17:58 4.97214 -74.03250 15029 ft 368 kts 44°
2026-04-23 17:58 4.99083 -74.01401 15439 ft 375 kts 44°
2026-04-23 17:58 5.01062 -73.99690 15960 ft 377 kts 33°
2026-04-23 17:58 5.03358 -73.98429 16531 ft 378 kts 21°
2026-04-23 17:59 5.05868 -73.97629 17063 ft 379 kts 13°
2026-04-23 17:59 5.11386 -73.96285 18123 ft 386 kts 13°
2026-04-23 17:59 5.13991 -73.95653 18619 ft 389 kts 13°
2026-04-23 18:00 5.16632 -73.95003 19101 ft 391 kts 13°
2026-04-23 18:00 5.19302 -73.94340 19562 ft 394 kts 13°
2026-04-23 18:00 5.21964 -73.93677 19997 ft 397 kts 13°
2026-04-23 18:00 5.24676 -73.93001 20427 ft 400 kts 13°
2026-04-23 18:01 5.27392 -73.92326 20810 ft 403 kts 13°
2026-04-23 18:01 5.30135 -73.91644 21197 ft 405 kts 13°
2026-04-23 18:01 5.32894 -73.90956 21618 ft 407 kts 13°
2026-04-23 18:01 5.35646 -73.90270 22012 ft 409 kts 13°
2026-04-23 18:02 5.37484 -73.89812 22272 ft 410 kts 13°
2026-04-23 18:02 5.41233 -73.88875 22798 ft 414 kts 13°
2026-04-23 18:02 5.44028 -73.88177 23169 ft 417 kts 13°
2026-04-23 18:02 5.46877 -73.87466 23539 ft 420 kts 13°
2026-04-23 18:03 5.49711 -73.86750 23899 ft 423 kts 15°
2026-04-23 18:03 5.52560 -73.85836 24264 ft 427 kts 20°
2026-04-23 18:03 5.55292 -73.84684 24630 ft 429 kts 26°
2026-04-23 18:03 5.57968 -73.83285 24987 ft 431 kts 29°
2026-04-23 18:04 5.60628 -73.81804 25331 ft 434 kts 30°
2026-04-23 18:04 5.63259 -73.80323 25675 ft 437 kts 30°
2026-04-23 18:04 5.65930 -73.78818 26021 ft 439 kts 30°
2026-04-23 18:04 5.68588 -73.77323 26355 ft 441 kts 30°
2026-04-23 18:05 5.71317 -73.75794 26682 ft 443 kts 30°
2026-04-23 18:05 5.74000 -73.74290 26995 ft 445 kts 30°
2026-04-23 18:05 5.76740 -73.72755 27333 ft 447 kts 30°
2026-04-23 18:05 5.79470 -73.71229 27756 ft 446 kts 30°
2026-04-23 18:06 5.82188 -73.69707 28201 ft 444 kts 30°
2026-04-23 18:06 5.84895 -73.68193 28624 ft 443 kts 31°
2026-04-23 18:06 5.87606 -73.66676 29010 ft 443 kts 31°
2026-04-23 18:06 5.90312 -73.65163 29337 ft 444 kts 31°
2026-04-23 18:07 5.93055 -73.63627 29678 ft 445 kts 31°
2026-04-23 18:07 5.95774 -73.62103 30004 ft 446 kts 31°
2026-04-23 18:07 5.98476 -73.60592 30260 ft 448 kts 31°
2026-04-23 18:08 6.03057 -73.58026 30310 ft 449 kts 31°
2026-04-23 18:08 6.09459 -73.54440 30337 ft 449 kts 31°
2026-04-23 18:09 6.14922 -73.51380 30329 ft 449 kts 31°
2026-04-23 18:09 6.20418 -73.48299 30326 ft 450 kts 31°
2026-04-23 18:10 6.25930 -73.45212 30315 ft 450 kts 31°
2026-04-23 18:10 6.31404 -73.42141 30290 ft 450 kts 31°
2026-04-23 18:11 6.36875 -73.39072 30278 ft 450 kts 31°
2026-04-23 18:11 6.42392 -73.35978 30002 ft 450 kts 31°
2026-04-23 18:11 6.45174 -73.34415 29107 ft 457 kts 31°
2026-04-23 18:12 6.48006 -73.32823 28192 ft 462 kts 30°
2026-04-23 18:12 6.50845 -73.31229 27384 ft 463 kts 30°
2026-04-23 18:12 6.53681 -73.29637 26614 ft 463 kts 30°
2026-04-23 18:12 6.56444 -73.28086 26357 ft 451 kts 30°
2026-04-23 18:13 6.59183 -73.26552 26109 ft 443 kts 30°
2026-04-23 18:13 6.61889 -73.25033 25863 ft 441 kts 30°
2026-04-23 18:13 6.64550 -73.23540 25620 ft 439 kts 30°
2026-04-23 18:13 6.67256 -73.22020 25370 ft 437 kts 30°
2026-04-23 18:14 6.69906 -73.20532 25127 ft 436 kts 29°
2026-04-23 18:14 6.72543 -73.19050 24883 ft 434 kts 29°
2026-04-23 18:14 6.75185 -73.17566 24638 ft 433 kts 29°
2026-04-23 18:14 6.77842 -73.16072 24391 ft 430 kts 29°
2026-04-23 18:15 6.80437 -73.14613 24147 ft 429 kts 29°
2026-04-23 18:15 6.83063 -73.13138 23900 ft 426 kts 29°
2026-04-23 18:15 6.85656 -73.11678 23655 ft 426 kts 28°
2026-04-23 18:15 6.88254 -73.10219 23409 ft 424 kts 28°
2026-04-23 18:16 6.90864 -73.08750 23068 ft 424 kts 28°
2026-04-23 18:16 6.93468 -73.07285 22027 ft 435 kts 28°
2026-04-23 18:16 6.96117 -73.05798 20919 ft 436 kts 28°
2026-04-23 18:17 7.01358 -73.02854 18748 ft 427 kts 28°
2026-04-23 18:17 7.03935 -73.01408 18014 ft 422 kts 29°
2026-04-23 18:17 7.06492 -72.99968 17513 ft 415 kts 29°
2026-04-23 18:17 7.09004 -72.98554 17264 ft 403 kts 29°
2026-04-23 18:18 7.11437 -72.97182 17246 ft 386 kts 29°
2026-04-23 18:18 7.13783 -72.95858 17264 ft 384 kts 29°
2026-04-23 18:18 7.16104 -72.94552 17281 ft 385 kts 29°
2026-04-23 18:18 7.18451 -72.93230 17287 ft 385 kts 29°
2026-04-23 18:19 7.20802 -72.91905 17303 ft 385 kts 29°
2026-04-23 18:19 7.23168 -72.90572 17324 ft 385 kts 29°
2026-04-23 18:19 7.25503 -72.89256 17344 ft 385 kts 29°
2026-04-23 18:19 7.27856 -72.87932 17354 ft 385 kts 29°
2026-04-23 18:20 7.30222 -72.86599 17348 ft 385 kts 29°
2026-04-23 18:20 7.32575 -72.85271 17339 ft 385 kts 29°
2026-04-23 18:20 7.34917 -72.83950 17331 ft 385 kts 28°
2026-04-23 18:20 7.37252 -72.82636 17320 ft 385 kts 28°
2026-04-23 18:21 7.39603 -72.81310 17303 ft 386 kts 29°
2026-04-23 18:21 7.41929 -72.79999 17281 ft 376 kts 29°
2026-04-23 18:21 7.44184 -72.78728 17263 ft 359 kts 29°
2026-04-23 18:21 7.46316 -72.77524 17242 ft 342 kts 29°
2026-04-23 18:22 7.48374 -72.76362 17221 ft 329 kts 29°
2026-04-23 18:22 7.50353 -72.75246 17210 ft 329 kts 29°
2026-04-23 18:22 7.52355 -72.74128 17144 ft 325 kts 28°
2026-04-23 18:22 7.54332 -72.73034 16798 ft 324 kts 28°
2026-04-23 18:23 7.55662 -72.72298 16496 ft 324 kts 28°
2026-04-23 18:23 7.60255 -72.69752 15505 ft 320 kts 28°
2026-04-23 18:24 7.64140 -72.67596 14718 ft 316 kts 28°
2026-04-23 18:24 7.66070 -72.66524 14315 ft 314 kts 28°
2026-04-23 18:24 7.67981 -72.65465 13932 ft 312 kts 28°
2026-04-23 18:25 7.71780 -72.63355 13149 ft 307 kts 28°
2026-04-23 18:25 7.73658 -72.62316 12748 ft 306 kts 28°
2026-04-23 18:25 7.75511 -72.61290 12363 ft 304 kts 28°
2026-04-23 18:25 7.77364 -72.60261 11986 ft 302 kts 28°
2026-04-23 18:26 7.79214 -72.59232 11634 ft 300 kts 28°
2026-04-23 18:26 7.81016 -72.58228 11299 ft 298 kts 28°
2026-04-23 18:26 7.82826 -72.57223 10950 ft 295 kts 28°
2026-04-23 18:26 7.84636 -72.56216 10595 ft 293 kts 28°
2026-04-23 18:27 7.86422 -72.55223 10231 ft 291 kts 28°
2026-04-23 18:27 7.88197 -72.54237 9870 ft 289 kts 28°
2026-04-23 18:27 7.89974 -72.53251 9503 ft 287 kts 29°
2026-04-23 18:27 7.91736 -72.52276 9113 ft 286 kts 27°
2026-04-23 18:28 7.93607 -72.51640 8703 ft 285 kts
2026-04-23 18:28 7.95581 -72.51795 8360 ft 282 kts 349°
2026-04-23 18:28 7.97492 -72.52214 8051 ft 278 kts 348°
2026-04-23 18:28 7.99381 -72.52630 7775 ft 273 kts 349°
2026-04-23 18:29 8.01226 -72.53024 7467 ft 269 kts 348°
2026-04-23 18:29 8.03053 -72.53417 7195 ft 265 kts 348°
2026-04-23 18:29 8.04873 -72.53806 6910 ft 261 kts 349°
2026-04-23 18:29 8.06638 -72.54164 6625 ft 257 kts 353°
2026-04-23 18:30 8.08387 -72.54009 6222 ft 255 kts 26°
2026-04-23 18:30 8.09691 -72.52848 5846 ft 252 kts 63°
2026-04-23 18:30 8.10027 -72.51121 5461 ft 251 kts 98°
2026-04-23 18:30 8.09387 -72.49507 5084 ft 252 kts 128°
2026-04-23 18:31 8.08013 -72.48438 4719 ft 253 kts 160°
2026-04-23 18:31 8.06272 -72.48274 4460 ft 251 kts 189°
2026-04-23 18:31 8.04655 -72.48938 4266 ft 254 kts 219°
2026-04-23 18:31 8.03599 -72.50330 4074 ft 249 kts 251°
2026-04-23 18:32 8.03248 -72.51993 3908 ft 240 kts 262°
2026-04-23 18:32 8.03026 -72.53682 3547 ft 242 kts 263°
2026-04-23 18:32 8.02790 -72.55353 3286 ft 237 kts 261°
2026-04-23 18:32 8.02093 -72.56801 2974 ft 231 kts 224°
2026-04-23 18:33 8.00709 -72.57391 2935 ft 208 kts 180°
2026-04-23 18:33 7.99469 -72.56909 2903 ft 180 kts 137°
2026-04-23 18:33 7.98642 -72.56034 2859 ft 169 kts 129°
2026-04-23 18:33 7.97871 -72.55096 2370 ft 178 kts 127°
2026-04-23 18:34 7.97043 -72.54152 1865 ft 183 kts 134°
2026-04-23 18:34 7.96105 -72.53342 1607 ft 171 kts 141°
2026-04-23 18:34 7.95180 -72.52688 1436 ft 153 kts 143°
2026-04-23 18:34 7.94292 -72.52097 1219 ft 152 kts 150°
2026-04-23 18:35 7.93370 -72.51546 1095 ft 148 kts 147°
2026-04-23 18:35 7.92609 -72.51083 1066 ft 89 kts 146°
2026-04-23 18:35 7.92326 -72.50898 1066 ft 13 kts 125°
2026-04-23 18:35 7.92284 -72.50880 1066 ft 2 kts 262°
2026-04-23 18:36 7.92313 -72.50907 1066 ft 9 kts 326°
2026-04-23 18:36 7.92386 -72.50951 1066 ft 13 kts 330°
2026-04-23 18:36 7.92468 -72.51000 1066 ft 14 kts 329°
2026-04-23 18:36 7.92557 -72.51051 1066 ft 14 kts 338°
2026-04-23 18:37 7.92650 -72.51048 1065 ft 8 kts 19°
2026-04-23 18:37 7.92707 -72.51033 1065 ft 8 kts 13°
2026-04-23 18:37 7.92768 -72.51012 1064 ft 9 kts 34°
2026-04-23 18:37 7.92815 -72.50963 1064 ft 10 kts 56°
2026-04-23 18:38 7.92839 -72.50922 1063 ft 6 kts 59°
2026-04-23 18:38 7.92870 -72.50886 1062 ft 6 kts 65°
2026-04-23 18:38 7.92865 -72.50861 1062 ft 3 kts 136°
2026-04-23 18:38 7.92839 -72.50860 1062 ft 3 kts 194°
2026-04-23 18:39 7.92831 -72.50862 1062 ft 0 kts 200°
2026-04-23 18:39 7.92827 -72.50864 1062 ft 0 kts 197°
2026-04-23 18:39 7.92822 -72.50866 1062 ft 0 kts 202°
2026-04-23 18:39 7.92819 -72.50867 1063 ft 0 kts 201°
2026-04-23 18:40 7.92812 -72.50870 1063 ft 0 kts 203°